This demonstration page uses our WeatherBlox Daily Observations layout. Learn more.

Left ArrowRight Arrow

44.31136, -96.79839

Hourly Observations for June 1, 2019

Temp ( °F °C ) Dew Point ( °F °C ) Humidity (%) Winds ( mph kmh ) Pressure ( in mb ) Visibility ( mi km ) Precip ( " mm )
12:16 am 00:16 Cloudy 63 17 55 13 77 77 NNW 14 22 29.84 1010 10 16 0.00 0.00
12:56 am 00:56 Clear 60 15.6 54 12.2 80 80 NNW 7 11 29.88 1012 10 16 0.00 0.00
1:56 am 01:56 Clear 58 14.4 54 12.2 87 87 SW 5 7 29.86 1011 10 16 0.00 0.00
2:56 am 02:56 Cloudy 60 15.6 54 12.2 80 80 NNE 6 9 29.88 1012 10 16 0.00 0.00
3:56 am 03:56 Mostly Cloudy 57 13.9 50 10 78 78 N 8 13 29.90 1013 10 16 0.00 0.00
4:56 am 04:56 Partly Cloudy 54 12.2 49 9.4 83 83 N 8 13 29.92 1013 10 16 0.00 0.00
5:56 am 05:56 Sunny 53 11.7 48 8.9 83 83 N 7 11 29.93 1014 10 16 0.00 0.00
7:56 am 07:56 Sunny 54 12.2 46 7.8 75 75 NNW 10 17 29.97 1015 10 16 0.00 0.00
8:56 am 08:56 Sunny 55 12.8 46 7.8 72 72 N 10 17 29.98 1015 10 16 0.00 0.00
9:56 am 09:56 Sunny 59 15 48 8.9 67 67 N 12 19 29.99 1016 10 16 0.00 0.00
10:56 am 10:56 Sunny 63 17.2 47 8.3 56 56 N 14 22 29.99 1016 10 16 0.00 0.00
11:56 am 11:56 Sunny 64 17.8 46 7.8 52 52 NNE 13 20 30.01 1016 10 16 0.00 0.00
12:56 pm 12:56 Sunny 65 18.3 47 8.3 52 52 NNW 12 19 30.00 1016 10 16 0.00 0.00
1:56 pm 13:56 Mostly Sunny 67 19.4 49 9.4 53 53 NNW 12 19 30.00 1016 10 16 0.00 0.00
2:56 pm 14:56 Partly Cloudy 67 19.4 48 8.9 51 51 NNW 10 17 30.00 1016 10 16 0.00 0.00
3:56 pm 15:56 Sunny 68 20 47 8.3 47 47 NNW 15 24 29.99 1016 10 16 0.00 0.00
4:56 pm 16:56 Sunny 69 20.6 44 6.7 41 41 NNW 12 19 29.99 1016 8 13 0.00 0.00
5:56 pm 17:56 Sunny 68 20 42 5.6 39 39 NW 10 17 29.99 1016 10 16 0.00 0.00
6:56 pm 18:56 Sunny 67 19.4 42 5.6 41 41 N 8 13 30.00 1016 10 16 0.00 0.00
7:56 pm 19:56 Sunny 64 17.8 42 5.6 45 45 N 8 13 30.01 1016 10 16 0.00 0.00
9:56 pm 21:56 Clear 59 15 42 5.6 54 54 NNE 3 6 30.03 1017 10 16 0.00 0.00
10:56 pm 22:56 Clear 55 12.8 44 6.7 67 67 Calm 30.04 1017 10 16 0.00 0.00
11:56 pm 23:56 Clear 54 12.2 44 6.7 69 69 Calm 30.04 1017 10 16 0.00 0.00

Powered by AerisWeather